Погода в Новой Ушице

Украина / Хмельницкая область     48°50′07″N   27°16′16″E
темп.,
°C
ветер,
м/с
пор.,
м/с
влажн.,
%
обл.,
%
осадки,
мм/ч
давл.,
гПа
погр.,
м
13 апреля, вт
вт1300:00+9юв225470 0.0 101911
03:00+8вюв11648 0.0 101910
06:00+6в227412 0.0 101811
09:00+10вюв3463100 0.0 1018237
12:00+15юв334571 0.0 1017965
15:00+17юв2137100 0.0 10161781
18:00+16вюв3242100 0.0 1015984
21:00+10вюв4971100 0.0 1015211
14 апреля, ср
ср1400:00+9ю2475100 0.0 101599
03:00+8юв3580100 0.0 1014114
06:00+8юв258398 0.1 1013234
09:00+9ююв467089 0.3 1014561
12:00+12ююв5654100 0.0 10131245
15:00+13ю4553100 0.1 10121355
18:00+11з3469100 0.2 1012236
21:00+9сз4678100 0.3 1012310
15 апреля, чт
чт1500:00+8ссз4586100 0.2 1012248
03:00+7вюв1391100 2.0 1012286
06:00+7ссз2492100 5.1 1011263
09:00+6сз4794100 6.8 1011349
12:00+8сз3490100 0.6 1011438
15:00+7сз6892100 1.1 1011481
18:00+5сз71090100 0.1 1012398
21:00+4сз61192100 0.1 1012381
16 апреля, пт
пт1600:00+3зсз71192100 0.4 1012408
03:00+3зсз61193100 0.9 1011457
06:00+3зсз61093100 0.5 1010432
09:00+3зсз61094100 1.3 1010361
12:00+4зсз5894100 2.6 1010365
15:00+5зсз71191100 4.1 1011402
18:00+4зсз71294100 1.0 1012405
21:00+5с4794100 1.8 1014524
17 апреля, сб
сб1700:00+5зсз3596100 0.1 1015213
03:00+4зсз479697 0.4 1016280
06:00+4сз1397100 1.1 1017173
09:00+4всв2391100 2.8 1019413
12:00+7в227296 0.1 1020923
15:00+7св3369100 0.3 1021765
18:00+8всв226593 0.1 1021931
21:00+5всв348759 0.1 1022175